TimePST,TemperatureF,Dew PointF,Humidity,Sea Level PressureIn,VisibilityMPH,Wind Direction,Wind SpeedMPH,Gust SpeedMPH,PrecipitationIn,Events,Conditions,WindDirDegrees,DateUTC
12:53 AM,44.1,30.9,60,30.07,10.0,Calm,Calm,-,N/A,,Clear,0,2013-02-26 08:53:00
1:53 AM,45.0,30.9,58,30.04,10.0,Calm,Calm,-,N/A,,Clear,0,2013-02-26 09:53:00
2:53 AM,44.1,30.0,58,30.01,10.0,NNE,4.6,-,N/A,,Clear,30,2013-02-26 10:53:00
3:53 AM,42.1,28.9,60,30.01,10.0,Calm,Calm,-,N/A,,Clear,0,2013-02-26 11:53:00
4:53 AM,41.0,30.0,65,30.01,10.0,Calm,Calm,-,N/A,,Clear,0,2013-02-26 12:53:00
5:53 AM,41.0,30.0,65,30.02,10.0,Calm,Calm,-,N/A,,Clear,0,2013-02-26 13:53:00
6:53 AM,41.0,30.9,67,30.03,10.0,Calm,Calm,-,N/A,,Partly Cloudy,0,2013-02-26 14:53:00
7:53 AM,46.0,32.0,58,30.04,10.0,Calm,Calm,-,N/A,,Partly Cloudy,0,2013-02-26 15:53:00
8:53 AM,51.1,28.9,43,30.04,10.0,SSW,3.5,-,N/A,,Partly Cloudy,200,2013-02-26 16:53:00
9:53 AM,55.9,28.0,34,30.04,10.0,Calm,Calm,-,N/A,,Partly Cloudy,0,2013-02-26 17:53:00
10:53 AM,62.1,24.1,23,30.03,10.0,Variable,3.5,-,N/A,,Partly Cloudy,0,2013-02-26 18:53:00
11:53 AM,66.9,21.9,18,30.01,10.0,Variable,5.8,-,N/A,,Partly Cloudy,0,2013-02-26 19:53:00
12:53 PM,68.0,21.0,17,29.98,10.0,Variable,6.9,-,N/A,,Partly Cloudy,0,2013-02-26 20:53:00
1:53 PM,71.1,17.1,13,29.97,10.0,WNW,6.9,-,N/A,,Partly Cloudy,300,2013-02-26 21:53:00
2:53 PM,73.0,15.1,11,29.98,10.0,WNW,9.2,-,N/A,,Partly Cloudy,290,2013-02-26 22:53:00
3:53 PM,71.6,15.8,12,29.99,10.0,West,8.1,-,N/A,,Partly Cloudy,280,2013-02-26 23:53:00
4:53 PM,70.0,19.0,14,29.99,10.0,West,3.5,-,N/A,,Partly Cloudy,260,2013-02-27 00:53:00
5:53 PM,66.9,28.9,24,30.00,10.0,SE,5.8,-,N/A,,Clear,140,2013-02-27 01:53:00
6:53 PM,61.0,32.0,34,30.04,10.0,SW,4.6,-,N/A,,Clear,230,2013-02-27 02:53:00
7:53 PM,61.0,39.9,46,30.06,10.0,North,3.5,-,N/A,,Clear,350,2013-02-27 03:53:00
8:53 PM,63.0,8.1,11,30.07,10.0,ENE,12.7,19.6,N/A,,Clear,60,2013-02-27 04:53:00
9:24 PM,55.4,35.6,47,30.08,10.0,North,8.1,-,N/A,,Clear,10,2013-02-27 05:24:00
9:53 PM,57.9,37.9,47,30.09,10.0,North,5.8,-,N/A,,Clear,360,2013-02-27 05:53:00
10:53 PM,62.1,3.9,10,30.08,10.0,ENE,16.1,21.9,N/A,,Clear,60,2013-02-27 06:53:00
11:53 PM,62.6,3.2,9,30.11,10.0,ENE,10.4,20.7,N/A,,Clear,70,2013-02-27 07:53:00